Regional Weather Roundup
Issued by NWS

Home | Current Version | Previous Version | Graphics & Text | Print | Product List | Glossary On
Versions: 1 2 3 4 5 6 7 8 9 10 11 12 13 14 15 16 17 18 19 20 21 22 23 24 25 26 27 28 29 30 31 32 33 34 35 36 37 38 39 40 41 42 43 44 45 46 47 48 49 50
000
ASUS45 KCYS 311110
RWRWY

WYOMING REGIONAL WEATHER ROUNDUP
NATIONAL WEATHER SERVICE CHEYENNE WY
500 AM MDT THU JUL 31 2014

NOTE:  "FAIR" INDICATES FEW OR NO CLOUDS BELOW 12,000 FEET
WITH NO SIGNIFICANT WEATHER AND/OR OBSTRUCTIONS TO VISIBILITY.

WYZ001-311200-
YELLOWSTONE NATIONAL PARK

CITY           SKY/WX    TMP DP  RH WIND       PRES   REMARKS
LK YELLOWSTONE   N/A     40  38  93 CALM      30.47S
W YELLOWSTONE  NOT AVBL

$$
WYZ002>013-054>058-071-098>099-311200-
NORTHERN WYOMING

CITY           SKY/WX    TMP DP  RH WIND       PRES   REMARKS
JACKSON        CLEAR     45  39  81 NW3       30.38F
CODY           NOT AVBL
GREYBULL       CLEAR     60  40  47 SE6       30.18F
WORLAND        CLEAR     56  42  59 SE3       30.20S
SHERIDAN       PTCLDY    49  41  74 S3        30.18F
BUFFALO        CLEAR     61  34  36 S5        30.26S
GILLETTE       CLEAR     60  43  53 SW5       30.22S
HULETT         FAIR      52  45  76 MISG      30.23
NEWCASTLE      FAIR      52  39  62 N7        30.24

$$
WYZ014>020-022>026-101>103-311200-
CENTRAL WYOMING

CITY           SKY/WX    TMP DP  RH WIND       PRES   REMARKS
BIG PINEY      CLEAR     40  38  93 SE5       30.40F
PINEDALE       SUNNY     37  37 100 W7        30.41F WCI  32
DUBOIS         FAIR      43  34  70 NW12      30.40S
LANDER         CLEAR     54  44  69 SE3       30.28S
RIVERTON       CLEAR     55  40  56 NW12      30.29R
CASPER         CLEAR     50  43  77 W5        30.28F
DOUGLAS        CLEAR     51  46  83 NW6       30.28S

$$
WYZ021-027>030-104>119-311200-
SOUTHERN WYOMING

CITY           SKY/WX    TMP DP  RH WIND       PRES   REMARKS
EVANSTON       CLEAR     52  46  80 NE6       30.36F
KEMMERER       SUNNY     45  43  93 N9        30.40S
FORT BRIDGER     N/A     50  48  93 S6        30.40S
ROCK SPRINGS   CLEAR     49  42  77 SW5       30.35F
DIXON          FAIR      51  43  74 NE9       30.33F
RAWLINS        CLEAR     47  45  93 N7        30.35F
SARATOGA       FAIR      45  43  93 S3        30.37S
LARAMIE        PTCLDY    44  43  96 SE3       30.37F
CHEYENNE       CLEAR     50  46  86 W8        30.31F
TORRINGTON     CLEAR     54  53  97 NE7       30.22R
PINE BLUFFS    FOG       50  50 100 CALM      30.28R VSB 1

$$


USA.gov is the U.S. government's official web portal to all federal, state and local government web resources and services.